Home   Weather   Narva   Past weeks
Flag for Estonia

Past Weather in Narva, Estonia — Yesterday and Last 2 Weeks

Now
72 °F

Overcast.


Feels Like: 76 °F
Forecast: 72 / 54 °F
Wind: 5 mph from South

Location: Narva

Current Time: Aug 19, 2019 at 5:04:05 pm

Latest Report: Aug 19, 2019 at 4:00 pm


Visibility: 13 mi

Pressure: 29.83 "Hg

Humidity: 57%

Dew Point: 56 °F

Location of NarvaLocation

Past Weather in Narva — Graph

°F

Narva Temperature Yesterday

Maximum temperature yesterday: 74 °F (at 4:00 pm)
Minimum temperature yesterday: 47 °F (at 6:00 am)
Average temperature yesterday: 62 °F

High & Low Weather Summary for the Past Weeks

 TemperatureHumidityPressure
High74 °F (Aug 18, 4:00 pm)93% (Aug 8, 12:00 am)30.06 "Hg (Aug 8, 12:00 am)
Low46 °F (Aug 10, 5:00 am)36% (Aug 18, 2:00 pm)29.60 "Hg (Aug 9, 4:00 am)
Average61 °F71%29.82 "Hg
* Reported Aug 4 3:00 pm — Aug 19 3:00 pm, Narva. Weather by CustomWeather, © 2019

Note: Actual official high and low records may vary slightly from our data, if they occured in-between our weather recording intervals... More about our weather records

Advertising

Narva Weather History for the Previous 24 Hours

Scroll right to see more
 ConditionsComfort  
Time TempWeatherWind HumidityBarometerVisibility
3:00 pm
Mon, Aug 19
72 °FOvercast.5 mph57%29.83 "Hg12 mi
2:00 pm71 °FOvercast.5 mph57%29.80 "Hg12 mi
1:00 pm69 °FOvercast.3 mph59%29.79 "Hg12 mi
12:00 pm70 °FOvercast.5 mph57%29.79 "Hg12 mi
11:00 am68 °FOvercast.6 mph58%29.79 "Hg12 mi
10:00 am66 °FOvercast.6 mph61%29.80 "Hg12 mi
9:00 am64 °FOvercast.6 mph63%29.81 "Hg12 mi
8:00 am61 °FOvercast.5 mph71%29.84 "Hg12 mi
7:00 am60 °FPartly sunny.5 mph78%29.84 "Hg12 mi
6:00 am56 °FSunny.3 mph88%29.85 "Hg12 mi
5:00 am58 °FPassing clouds.5 mph84%29.85 "Hg12 mi
4:00 am57 °FClear.5 mph88%29.87 "Hg12 mi
3:00 am59 °FClear.3 mph76%29.88 "Hg12 mi
2:00 am60 °FClear.3 mph74%29.88 "Hg12 mi
1:00 am61 °FClear.5 mph73%29.88 "Hg12 mi
12:00 am53 °FClear.3 mph77%29.88 "Hg12 mi
11:00 pm
Sun, Aug 18
56 °FPassing clouds.3 mph76%29.88 "Hg12 mi
10:00 pm56 °FFog.1 mph76%29.89 "Hg2 mi
9:00 pm59 °FClear.1 mph71%29.90 "Hg12 mi
8:00 pm65 °FSunny.1 mph56%29.89 "Hg12 mi
7:00 pm72 °FSunny.2 mph42%29.89 "Hg12 mi
6:00 pm73 °FSunny.2 mph39%29.90 "Hg12 mi
5:00 pm74 °FSunny.2 mph36%29.90 "Hg12 mi
Weather by CustomWeather, © 2019

See weather overview